Time,TemperatureF,DewpointF,PressureIn,WindDirection,WindDirectionDegrees,WindSpeedMPH,WindSpeedGustMPH,Humidity,HourlyPrecipIn,Conditions,Clouds,dailyrainin,SoftwareType,DateUTC
2013-07-25 00:02:00,53.0,50.0,29.86,ENE,76,0.0,-999.0,91,-99.99,,,-99.99,,2013-07-25 04:02:00,
2013-07-25 00:12:00,53.0,50.0,29.86,ENE,76,0.0,-999.0,91,-99.99,,,-99.99,,2013-07-25 04:12:00,
2013-07-25 00:22:00,53.0,50.0,29.86,ENE,76,1.0,-999.0,91,-99.99,,,-99.99,,2013-07-25 04:22:00,
2013-07-25 00:33:00,53.0,50.0,29.86,ENE,76,0.0,-999.0,91,-99.99,,,-99.99,,2013-07-25 04:33:00,
2013-07-25 00:53:00,53.0,50.0,29.86,ENE,76,0.0,-999.0,91,-99.99,,,-99.99,,2013-07-25 04:53:00,
2013-07-25 01:02:00,52.0,49.0,29.86,ENE,76,2.0,-999.0,90,-99.99,,,-99.99,,2013-07-25 05:02:00,
2013-07-25 01:22:00,52.0,49.0,29.86,ENE,76,2.0,-999.0,90,-99.99,,,-99.99,,2013-07-25 05:22:00,
2013-07-25 01:32:00,52.0,49.0,29.86,East,88,0.0,-999.0,90,-99.99,,,-99.99,,2013-07-25 05:32:00,
2013-07-25 01:43:00,53.0,51.0,29.86,SSE,167,0.0,-999.0,93,-99.99,,,-99.99,,2013-07-25 05:43:00,
2013-07-25 01:52:00,53.0,51.0,29.86,SSE,167,0.0,-999.0,93,-99.99,,,-99.99,,2013-07-25 05:52:00,
2013-07-25 02:02:00,53.0,51.0,29.86,SSE,167,0.0,-999.0,92,-99.99,,,-99.99,,2013-07-25 06:02:00,
2013-07-25 02:22:00,54.0,52.0,29.86,SSE,167,1.0,-999.0,93,-99.99,,,-99.99,,2013-07-25 06:22:00,
2013-07-25 02:32:00,53.0,51.0,29.85,SSE,167,0.0,-999.0,94,-99.99,,,-99.99,,2013-07-25 06:32:00,
2013-07-25 02:52:00,53.0,51.0,29.85,SSE,167,0.0,-999.0,93,-99.99,,,-99.99,,2013-07-25 06:52:00,
2013-07-25 03:02:00,52.0,50.0,29.85,SSE,167,0.0,-999.0,94,-99.99,,,-99.99,,2013-07-25 07:02:00,
2013-07-25 03:12:00,52.0,50.0,29.84,SSE,167,0.0,-999.0,93,-99.99,,,-99.99,,2013-07-25 07:12:00,
2013-07-25 03:22:00,52.0,50.0,29.84,SSE,167,0.0,-999.0,93,-99.99,,,-99.99,,2013-07-25 07:22:00,
2013-07-25 03:33:00,52.0,50.0,29.85,SSE,167,0.0,-999.0,92,-99.99,,,-99.99,,2013-07-25 07:33:00,
2013-07-25 03:43:00,51.0,48.0,29.85,East,88,3.0,-999.0,91,-99.99,,,-99.99,,2013-07-25 07:43:00,
2013-07-25 03:53:00,51.0,48.0,29.85,East,88,3.0,-999.0,91,-99.99,,,-99.99,,2013-07-25 07:53:00,
2013-07-25 04:02:00,51.0,47.0,29.85,East,88,2.0,-999.0,87,-99.99,,,-99.99,,2013-07-25 08:02:00,
2013-07-25 04:12:00,51.0,47.0,29.85,East,88,2.0,-999.0,87,-99.99,,,-99.99,,2013-07-25 08:12:00,
2013-07-25 04:22:00,51.0,47.0,29.86,East,88,2.0,-999.0,86,-99.99,,,-99.99,,2013-07-25 08:22:00,
2013-07-25 04:32:00,51.0,47.0,29.86,East,88,0.0,-999.0,85,-99.99,,,-99.99,,2013-07-25 08:32:00,
2013-07-25 04:44:00,51.0,47.0,29.87,East,88,0.0,-999.0,85,-99.99,,,-99.99,,2013-07-25 08:44:00,
2013-07-25 04:52:00,51.0,47.0,29.87,East,88,0.0,-999.0,85,-99.99,,,-99.99,,2013-07-25 08:52:00,
2013-07-25 05:02:00,51.0,46.0,29.87,East,88,1.0,-999.0,84,-99.99,,,-99.99,,2013-07-25 09:02:00,
2013-07-25 05:12:00,51.0,47.0,29.87,East,88,1.0,-999.0,86,-99.99,,,-99.99,,2013-07-25 09:12:00,
2013-07-25 05:22:00,51.0,47.0,29.87,East,88,1.0,-999.0,86,-99.99,,,-99.99,,2013-07-25 09:22:00,
2013-07-25 05:43:00,51.0,48.0,29.87,East,88,2.0,-999.0,88,-99.99,,,-99.99,,2013-07-25 09:43:00,
2013-07-25 05:53:00,51.0,48.0,29.87,East,88,2.0,-999.0,88,-99.99,,,-99.99,,2013-07-25 09:53:00,
2013-07-25 06:03:00,51.0,48.0,29.87,ESE,118,2.0,-999.0,88,-99.99,,,-99.99,,2013-07-25 10:03:00,
2013-07-25 06:12:00,51.0,48.0,29.87,ESE,118,2.0,-999.0,88,-99.99,,,-99.99,,2013-07-25 10:12:00,
2013-07-25 06:22:00,51.0,48.0,29.87,SE,132,2.0,-999.0,89,-99.99,,,-99.99,,2013-07-25 10:22:00,
2013-07-25 06:32:00,50.0,48.0,29.87,SE,128,3.0,-999.0,93,-99.99,,,-99.99,,2013-07-25 10:32:00,
2013-07-25 06:42:00,50.0,48.0,29.87,SE,128,3.0,-999.0,93,-99.99,,,-99.99,,2013-07-25 10:42:00,
2013-07-25 06:53:00,50.0,48.0,29.88,SE,136,1.0,-999.0,94,-99.99,,,-99.99,,2013-07-25 10:53:00,
2013-07-25 07:02:00,50.0,48.0,29.88,SE,136,1.0,-999.0,94,-99.99,,,-99.99,,2013-07-25 11:02:00,
2013-07-25 07:22:00,51.0,49.0,29.88,SE,138,0.0,-999.0,93,-99.99,,,-99.99,,2013-07-25 11:22:00,
2013-07-25 07:32:00,52.0,50.0,29.88,SSE,150,1.0,-999.0,93,-99.99,,,-99.99,,2013-07-25 11:32:00,
2013-07-25 07:43:00,53.0,51.0,29.89,SSE,154,1.0,-999.0,93,-99.99,,,-99.99,,2013-07-25 11:43:00,
2013-07-25 07:52:00,53.0,51.0,29.89,SSE,154,1.0,-999.0,93,-99.99,,,-99.99,,2013-07-25 11:52:00,
2013-07-25 08:23:00,54.0,52.0,29.90,SW,217,3.0,-999.0,93,-99.99,,,-99.99,,2013-07-25 12:23:00,
2013-07-25 08:32:00,54.0,52.0,29.90,SW,222,2.0,-999.0,93,-99.99,,,-99.99,,2013-07-25 12:32:00,
2013-07-25 08:45:00,54.0,52.0,29.90,SSW,213,5.0,-999.0,93,-99.99,,,-99.99,,2013-07-25 12:45:00,
2013-07-25 08:53:00,54.0,52.0,29.90,SSW,213,5.0,-999.0,93,-99.99,,,-99.99,,2013-07-25 12:53:00,
2013-07-25 09:03:00,54.0,52.0,29.90,SSW,213,5.0,-999.0,93,-99.99,,,-99.99,,2013-07-25 13:03:00,
2013-07-25 09:12:00,55.0,52.0,29.90,SW,227,5.0,-999.0,90,-99.99,,,-99.99,,2013-07-25 13:12:00,
2013-07-25 09:22:00,56.0,53.0,29.91,SW,223,5.0,-999.0,89,-99.99,,,-99.99,,2013-07-25 13:22:00,
2013-07-25 09:43:00,56.0,53.0,29.91,SW,234,7.0,-999.0,91,-99.99,,,-99.99,,2013-07-25 13:43:00,
2013-07-25 09:53:00,57.0,53.0,29.91,WSW,238,7.0,-999.0,87,-99.99,,,-99.99,,2013-07-25 13:53:00,
2013-07-25 10:02:00,56.0,53.0,29.91,SW,229,6.0,-999.0,90,-99.99,,,-99.99,,2013-07-25 14:02:00,
2013-07-25 10:12:00,56.0,53.0,29.91,SW,229,6.0,-999.0,90,-99.99,,,-99.99,,2013-07-25 14:12:00,
2013-07-25 10:33:00,57.0,53.0,29.92,SW,230,6.0,-999.0,87,-99.99,,,-99.99,,2013-07-25 14:33:00,
2013-07-25 10:43:00,59.0,54.0,29.93,SW,229,6.0,-999.0,83,-99.99,,,-99.99,,2013-07-25 14:43:00,
2013-07-25 10:53:00,59.0,54.0,29.93,SW,229,6.0,-999.0,83,-99.99,,,-99.99,,2013-07-25 14:53:00,
2013-07-25 11:02:00,58.0,53.0,29.93,WSW,241,6.0,-999.0,84,-99.99,,,-99.99,,2013-07-25 15:02:00,
2013-07-25 11:12:00,58.0,53.0,29.93,WSW,241,6.0,-999.0,84,-99.99,,,-99.99,,2013-07-25 15:12:00,
2013-07-25 11:22:00,60.0,52.0,29.93,WSW,243,4.0,-999.0,76,-99.99,,,-99.99,,2013-07-25 15:22:00,
2013-07-25 11:32:00,61.0,52.0,29.93,SW,217,5.0,-999.0,72,-99.99,,,-99.99,,2013-07-25 15:32:00,
2013-07-25 12:02:00,61.0,52.0,29.94,West,259,5.0,-999.0,71,-99.99,,,-99.99,,2013-07-25 16:02:00,
2013-07-25 12:23:00,62.0,51.0,29.94,WNW,288,5.0,-999.0,67,-99.99,,,-99.99,,2013-07-25 16:23:00,
2013-07-25 12:45:00,62.0,51.0,29.94,WSW,244,5.0,-999.0,67,-99.99,,,-99.99,,2013-07-25 16:45:00,
2013-07-25 12:53:00,62.0,51.0,29.94,WSW,244,5.0,-999.0,67,-99.99,,,-99.99,,2013-07-25 16:53:00,
2013-07-25 13:12:00,62.0,51.0,29.94,SW,233,4.0,-999.0,66,-99.99,,,-99.99,,2013-07-25 17:12:00,
2013-07-25 13:22:00,65.0,53.0,29.94,WSW,246,6.0,-999.0,64,-99.99,,,-99.99,,2013-07-25 17:22:00,
2013-07-25 13:43:00,66.0,53.0,29.95,SW,217,6.0,-999.0,62,-99.99,,,-99.99,,2013-07-25 17:43:00,
2013-07-25 13:53:00,66.0,53.0,29.95,SW,217,6.0,-999.0,62,-99.99,,,-99.99,,2013-07-25 17:53:00,
2013-07-25 14:02:00,67.0,53.0,29.95,WNW,289,5.0,-999.0,60,-99.99,,,-99.99,,2013-07-25 18:02:00,
2013-07-25 14:22:00,67.0,53.0,29.96,West,267,8.0,-999.0,61,-99.99,,,-99.99,,2013-07-25 18:22:00,
2013-07-25 14:33:00,66.0,53.0,29.95,WSW,251,8.0,-999.0,63,-99.99,,,-99.99,,2013-07-25 18:33:00,
2013-07-25 14:43:00,66.0,53.0,29.95,WSW,249,4.0,-999.0,62,-99.99,,,-99.99,,2013-07-25 18:43:00,
2013-07-25 14:52:00,66.0,53.0,29.95,WSW,249,4.0,-999.0,62,-99.99,,,-99.99,,2013-07-25 18:52:00,
2013-07-25 15:03:00,66.0,53.0,29.95,West,267,6.0,-999.0,63,-99.99,,,-99.99,,2013-07-25 19:03:00,
2013-07-25 15:23:00,67.0,53.0,29.96,WNW,290,7.0,-999.0,60,-99.99,,,-99.99,,2013-07-25 19:23:00,
2013-07-25 15:43:00,66.0,52.0,29.96,WNW,284,8.0,-999.0,61,-99.99,,,-99.99,,2013-07-25 19:43:00,
2013-07-25 15:52:00,66.0,52.0,29.96,WNW,284,8.0,-999.0,61,-99.99,,,-99.99,,2013-07-25 19:52:00,
2013-07-25 16:03:00,66.0,54.0,29.96,West,272,4.0,-999.0,65,-99.99,,,-99.99,,2013-07-25 20:03:00,
2013-07-25 16:12:00,66.0,53.0,29.96,NW,311,5.0,-999.0,64,-99.99,,,-99.99,,2013-07-25 20:12:00,
2013-07-25 16:22:00,66.0,53.0,29.96,NW,311,5.0,-999.0,64,-99.99,,,-99.99,,2013-07-25 20:22:00,
2013-07-25 16:53:00,67.0,54.0,29.96,West,259,5.0,-999.0,64,-99.99,,,-99.99,,2013-07-25 20:53:00,
2013-07-25 17:03:00,66.0,53.0,29.96,NNW,333,5.0,-999.0,64,-99.99,,,-99.99,,2013-07-25 21:03:00,
2013-07-25 17:22:00,65.0,53.0,29.96,NW,313,5.0,-999.0,66,-99.99,,,-99.99,,2013-07-25 21:22:00,
2013-07-25 17:44:00,65.0,54.0,29.97,WNW,296,6.0,-999.0,68,-99.99,,,-99.99,,2013-07-25 21:44:00,
2013-07-25 17:52:00,65.0,54.0,29.97,WNW,296,6.0,-999.0,68,-99.99,,,-99.99,,2013-07-25 21:52:00,
2013-07-25 18:02:00,62.0,53.0,29.97,WNW,290,6.0,-999.0,73,-99.99,,,-99.99,,2013-07-25 22:02:00,
2013-07-25 18:22:00,63.0,54.0,29.98,WNW,288,5.0,-999.0,73,-99.99,,,-99.99,,2013-07-25 22:22:00,
2013-07-25 18:32:00,62.0,52.0,29.98,NNW,342,6.0,-999.0,71,-99.99,,,-99.99,,2013-07-25 22:32:00,
2013-07-25 18:43:00,61.0,53.0,29.98,NNW,327,5.0,-999.0,76,-99.99,,,-99.99,,2013-07-25 22:43:00,
2013-07-25 18:52:00,61.0,53.0,29.98,NNW,327,5.0,-999.0,76,-99.99,,,-99.99,,2013-07-25 22:52:00,
2013-07-25 19:02:00,61.0,53.0,29.98,NW,304,5.0,-999.0,75,-99.99,,,-99.99,,2013-07-25 23:02:00,
2013-07-25 19:22:00,61.0,54.0,29.98,WNW,292,6.0,-999.0,77,-99.99,,,-99.99,,2013-07-25 23:22:00,
2013-07-25 19:32:00,61.0,54.0,29.98,WNW,299,4.0,-999.0,78,-99.99,,,-99.99,,2013-07-25 23:32:00,
2013-07-25 19:43:00,60.0,53.0,29.99,West,267,4.0,-999.0,78,-99.99,,,-99.99,,2013-07-25 23:43:00,
2013-07-25 19:52:00,60.0,53.0,29.99,West,267,4.0,-999.0,78,-99.99,,,-99.99,,2013-07-25 23:52:00,
2013-07-25 20:02:00,59.0,53.0,29.99,West,275,5.0,-999.0,81,-99.99,,,-99.99,,2013-07-26 00:02:00,
2013-07-25 20:22:00,58.0,52.0,29.99,WNW,284,4.0,-999.0,81,-99.99,,,-99.99,,2013-07-26 00:22:00,
2013-07-25 20:33:00,57.0,52.0,30.00,WNW,284,3.0,-999.0,83,-99.99,,,-99.99,,2013-07-26 00:33:00,
2013-07-25 20:43:00,56.0,52.0,30.00,WSW,256,3.0,-999.0,86,-99.99,,,-99.99,,2013-07-26 00:43:00,
2013-07-25 20:52:00,56.0,52.0,30.00,WSW,256,3.0,-999.0,86,-99.99,,,-99.99,,2013-07-26 00:52:00,
2013-07-25 21:02:00,55.0,52.0,30.00,WNW,284,3.0,-999.0,88,-99.99,,,-99.99,,2013-07-26 01:02:00,
2013-07-25 21:22:00,54.0,51.0,30.00,NW,315,3.0,-999.0,90,-99.99,,,-99.99,,2013-07-26 01:22:00,
2013-07-25 21:33:00,54.0,51.0,30.01,NW,305,3.0,-999.0,91,-99.99,,,-99.99,,2013-07-26 01:33:00,
2013-07-25 21:52:00,54.0,51.0,30.01,North,5,4.0,-999.0,90,-99.99,,,-99.99,,2013-07-26 01:52:00,
2013-07-25 22:02:00,54.0,51.0,30.02,North,350,2.0,-999.0,90,-99.99,,,-99.99,,2013-07-26 02:02:00,
2013-07-25 22:22:00,53.0,50.0,30.02,ENE,63,3.0,-999.0,91,-99.99,,,-99.99,,2013-07-26 02:22:00,
2013-07-25 22:43:00,53.0,50.0,30.03,NE,40,4.0,-999.0,90,-99.99,,,-99.99,,2013-07-26 02:43:00,
2013-07-25 22:52:00,53.0,50.0,30.03,NE,40,4.0,-999.0,90,-99.99,,,-99.99,,2013-07-26 02:52:00,
2013-07-25 23:02:00,52.0,50.0,30.03,NE,38,2.0,-999.0,92,-99.99,,,-99.99,,2013-07-26 03:02:00,
2013-07-25 23:12:00,52.0,50.0,30.03,NE,38,2.0,-999.0,92,-99.99,,,-99.99,,2013-07-26 03:12:00,
2013-07-25 23:22:00,52.0,50.0,30.03,North,351,3.0,-999.0,93,-99.99,,,-99.99,,2013-07-26 03:22:00,
2013-07-25 23:33:00,52.0,50.0,30.03,ENE,69,3.0,-999.0,92,-99.99,,,-99.99,,2013-07-26 03:33:00,
2013-07-25 23:44:00,52.0,50.0,30.03,East,80,3.0,-999.0,93,-99.99,,,-99.99,,2013-07-26 03:44:00,
2013-07-25 23:53:00,52.0,50.0,30.03,East,80,3.0,-999.0,93,-99.99,,,-99.99,,2013-07-26 03:53:00,